2019-093F

Last updated on Mon Jan 20 2020 00:02:04 GMT+0000 (Coordinated Universal Time)

1 44884U 19093F 20019.50631317 .00000153 00000-0 26199-4 0 9998 2 44884 97.9720 96.4703 0014074 166.7366 193.4219 14.81753427 4492
UTC large
Height (km)
Speed (km/s)
/
Latitude / Longitude
Inclination (degrees)
Orbital Period (minutes)
Azimuth
Elevation
Range (km)
Doppler Factor

Next 0 passes for location: London (51.5072 / 0.1276)

Sorry there are no passes over London.